When you browse on this site, cookies collect data to enhance your experience and personalize the content and advertising you see.
Visit our Privacy Policy to learn more. By continuing to use the site, you agree to this use of cookies and data.
  • Em Portugal
  • Lista de países
  • Para 7 dias
  • Temperatura da água
  • Mapa do tempo
  • Widgets de tempo
  • user-avatar
    Iniciar Sessão

    Previsão horária em Dalniy

    Hoje, 3 Junho, Quarta-feira

    Tempo Temperatura Precipitação Vento Pressão Humidade
    00:00 +8°C° 0 mm 1 m/s 749 mmHg 78%
    01:00 +7°C° 0 mm 1 m/s 749 mmHg 78%
    02:00 +7°C° 0 mm 1 m/s 749 mmHg 79%
    03:00 +7°C° 0 mm 1 m/s 749 mmHg 80%
    04:00 +7°C° 0 mm 1 m/s 749 mmHg 81%
    05:00 +9°C° 0 mm 1 m/s 749 mmHg 73%
    06:00 +11°C° 0 mm 1 m/s 749 mmHg 66%
    07:00 +13°C° 0 mm 1 m/s 749 mmHg 59%
    08:00 +14°C° 0 mm 2 m/s 749 mmHg 54%
    09:00 +15°C° 0 mm 2 m/s 749 mmHg 48%
    10:00 +16°C° 0 mm 3 m/s 749 mmHg 43%
    11:00 +17°C° 0 mm 3 m/s 749 mmHg 42%
    12:00 +17°C° 0 mm 3 m/s 748 mmHg 40%
    13:00 +17°C° 0 mm 3 m/s 748 mmHg 39%
    14:00 +17°C° 0 mm 3 m/s 748 mmHg 39%
    15:00 +17°C° 0 mm 3 m/s 748 mmHg 40%
    16:00 +17°C° 0 mm 3 m/s 748 mmHg 40%
    17:00 +16°C° 0 mm 2 m/s 748 mmHg 47%
    18:00 +15°C° 0 mm 2 m/s 748 mmHg 53%
    19:00 +15°C° 0 mm 1 m/s 748 mmHg 59%
    20:00 +13°C° 0 mm 1 m/s 749 mmHg 63%
    21:00 +11°C° 0 mm 1 m/s 749 mmHg 67%
    22:00 +9°C° 0 mm 1 m/s 749 mmHg 71%
    23:00 +8°C° 0 mm 1 m/s 750 mmHg 73%

    Amanhã, 4 Junho, Quinta-feira

    Tempo Temperatura Precipitação Vento Pressão Humidade
    00:00 +8°C° 0 mm 1 m/s 750 mmHg 75%
    01:00 +7°C° 0 mm 1 m/s 750 mmHg 77%
    02:00 +7°C° 0 mm 1 m/s 750 mmHg 79%
    03:00 +7°C° 0 mm 1 m/s 751 mmHg 80%
    04:00 +6°C° 0 mm 1 m/s 751 mmHg 82%
    05:00 +9°C° 0 mm 1 m/s 751 mmHg 75%
    06:00 +11°C° 0 mm 1 m/s 751 mmHg 68%
    07:00 +13°C° 0 mm 1 m/s 751 mmHg 60%
    08:00 +14°C° 0 mm 2 m/s 751 mmHg 54%
    09:00 +15°C° 0 mm 2 m/s 752 mmHg 47%
    10:00 +16°C° 0 mm 2 m/s 752 mmHg 40%
    11:00 +17°C° 0 mm 2 m/s 752 mmHg 38%
    12:00 +18°C° 0 mm 2 m/s 752 mmHg 36%
    13:00 +18°C° 0 mm 2 m/s 751 mmHg 34%
    14:00 +18°C° 0 mm 2 m/s 751 mmHg 35%
    15:00 +18°C° 0 mm 2 m/s 751 mmHg 35%
    16:00 +18°C° 0 mm 2 m/s 751 mmHg 36%
    17:00 +17°C° 0 mm 2 m/s 751 mmHg 43%
    18:00 +16°C° 0 mm 1 m/s 751 mmHg 50%
    19:00 +15°C° 0 mm 1 m/s 751 mmHg 57%
    20:00 +13°C° 0 mm 1 m/s 751 mmHg 60%
    21:00 +12°C° 0 mm 1 m/s 752 mmHg 63%
    22:00 +10°C° 0 mm 1 m/s 752 mmHg 66%
    23:00 +9°C° 0 mm 1 m/s 752 mmHg 68%

    Depois de amanhã, 5 Junho, Sexta-feira

    Tempo Temperatura Precipitação Vento Pressão Humidade
    00:00 +9°C° 0 mm 1 m/s 752 mmHg 69%
    01:00 +8°C° 0 mm 1 m/s 752 mmHg 71%
    02:00 +8°C° 0 mm 1 m/s 753 mmHg 72%
    03:00 +8°C° 0 mm 1 m/s 753 mmHg 73%
    04:00 +8°C° 0 mm 1 m/s 754 mmHg 74%
    05:00 +9°C° 0 mm 0 m/s 754 mmHg 67%
    06:00 +12°C° 0 mm 0 m/s 754 mmHg 60%
    07:00 +15°C° 0 mm 0 m/s 754 mmHg 53%
    08:00 +16°C° 0 mm 0 m/s 754 mmHg 48%
    09:00 +18°C° 0 mm 0 m/s 754 mmHg 43%
    10:00 +20°C° 0 mm 0 m/s 754 mmHg 37%
    11:00 +22°C° 0 mm 1 m/s 754 mmHg 36%
    12:00 +23°C° 0 mm 1 m/s 754 mmHg 34%
    13:00 +23°C° 0 mm 1 m/s 754 mmHg 33%
    14:00 +23°C° 0 mm 1 m/s 753 mmHg 33%
    15:00 +23°C° 0 mm 1 m/s 753 mmHg 33%
    16:00 +23°C° 0 mm 1 m/s 753 mmHg 34%
    17:00 +21°C° 0 mm 1 m/s 753 mmHg 41%
    18:00 +20°C° 0 mm 1 m/s 753 mmHg 49%
    19:00 +19°C° 0 mm 1 m/s 753 mmHg 57%
    20:00 +16°C° 0 mm 1 m/s 753 mmHg 60%
    21:00 +14°C° 0 mm 1 m/s 754 mmHg 64%
    22:00 +12°C° 0 mm 1 m/s 754 mmHg 68%
    23:00 +12°C° 0 mm 1 m/s 754 mmHg 70%

    6 Junho, Sábado

    Tempo Temperatura Precipitação Vento Pressão Humidade
    00:00 +11°C° 0 mm 1 m/s 754 mmHg 71%
    01:00 +11°C° 0 mm 1 m/s 754 mmHg 72%
    02:00 +11°C° 0 mm 1 m/s 755 mmHg 73%
    03:00 +10°C° 0 mm 1 m/s 755 mmHg 73%
    04:00 +10°C° 0 mm 1 m/s 755 mmHg 74%
    05:00 +13°C° 0 mm 1 m/s 755 mmHg 67%
    06:00 +15°C° 0 mm 1 m/s 755 mmHg 60%
    07:00 +19°C° 0 mm 1 m/s 755 mmHg 54%
    08:00 +19°C° 0 mm 0 m/s 755 mmHg 49%
    09:00 +21°C° 0 mm 0 m/s 755 mmHg 44%
    10:00 +22°C° 0 mm 0 m/s 755 mmHg 39%
    11:00 +23°C° 0 mm 0 m/s 755 mmHg 37%
    12:00 +26°C° 0 mm 1 m/s 755 mmHg 36%
    13:00 +26°C° 0 mm 1 m/s 755 mmHg 34%
    14:00 +26°C° 0 mm 1 m/s 754 mmHg 34%
    15:00 +25°C° 0 mm 1 m/s 754 mmHg 35%
    16:00 +25°C° 0 mm 1 m/s 754 mmHg 36%
    17:00 +24°C° 0 mm 1 m/s 754 mmHg 43%
    18:00 +22°C° 0 mm 1 m/s 754 mmHg 50%
    19:00 +21°C° 0 mm 1 m/s 753 mmHg 58%
    20:00 +18°C° 0 mm 2 m/s 754 mmHg 62%
    21:00 +16°C° 0 mm 2 m/s 754 mmHg 66%
    22:00 +15°C° 0 mm 2 m/s 754 mmHg 71%
    23:00 +14°C° 0 mm 2 m/s 754 mmHg 73%

    7 Junho, Domingo

    Tempo Temperatura Precipitação Vento Pressão Humidade
    00:00 +13°C° 0 mm 2 m/s 754 mmHg 75%
    01:00 +13°C° 0 mm 2 m/s 754 mmHg 77%
    02:00 +13°C° 0 mm 2 m/s 755 mmHg 78%
    03:00 +12°C° 0 mm 2 m/s 755 mmHg 78%
    04:00 +12°C° 0 mm 2 m/s 755 mmHg 78%
    05:00 +15°C° 0 mm 1 m/s 755 mmHg 71%
    06:00 +18°C° 0 mm 1 m/s 755 mmHg 64%
    07:00 +20°C° 0 mm 1 m/s 755 mmHg 57%
    08:00 +21°C° 0 mm 1 m/s 755 mmHg 51%
    09:00 +23°C° 0 mm 1 m/s 755 mmHg 44%
    10:00 +24°C° 0 mm 2 m/s 755 mmHg 38%
    11:00 +25°C° 0 mm 2 m/s 755 mmHg 36%
    12:00 +26°C° 0 mm 2 m/s 755 mmHg 34%
    13:00 +26°C° 0 mm 2 m/s 755 mmHg 32%
    14:00 +26°C° 0 mm 2 m/s 754 mmHg 32%
    15:00 +26°C° 0 mm 2 m/s 754 mmHg 33%
    16:00 +26°C° 0 mm 2 m/s 754 mmHg 34%
    17:00 +25°C° 0 mm 2 m/s 754 mmHg 42%
    18:00 +24°C° 0 mm 1 m/s 754 mmHg 49%
    19:00 +22°C° 0 mm 1 m/s 754 mmHg 56%
    20:00 +21°C° 0 mm 1 m/s 754 mmHg 60%
    21:00 +18°C° 0 mm 2 m/s 754 mmHg 64%
    22:00 +16°C° 0 mm 2 m/s 754 mmHg 68%
    23:00 +15°C° 0 mm 2 m/s 754 mmHg 71%

    8 Junho, Segunda-feira

    Tempo Temperatura Precipitação Vento Pressão Humidade
    00:00 +15°C° 0 mm 2 m/s 754 mmHg 74%
    01:00 +14°C° 0 mm 2 m/s 754 mmHg 78%
    02:00 +14°C° 0 mm 2 m/s 754 mmHg 78%
    03:00 +14°C° 0 mm 2 m/s 754 mmHg 78%
    04:00 +13°C° 0 mm 2 m/s 754 mmHg 79%
    05:00 +15°C° 0 mm 2 m/s 754 mmHg 72%
    06:00 +17°C° 0 mm 3 m/s 754 mmHg 66%
    07:00 +20°C° 0 mm 3 m/s 754 mmHg 60%
    08:00 +21°C° 0 mm 3 m/s 754 mmHg 55%
    09:00 +24°C° 0 mm 3 m/s 754 mmHg 49%
    10:00 +25°C° 0 mm 3 m/s 754 mmHg 44%
    11:00 +26°C° 0 mm 3 m/s 754 mmHg 43%
    12:00 +27°C° 0 mm 4 m/s 753 mmHg 42%
    13:00 +28°C° 0 mm 4 m/s 753 mmHg 41%
    14:00 +28°C° 0 mm 4 m/s 753 mmHg 42%
    15:00 +28°C° 0 mm 4 m/s 753 mmHg 43%
    16:00 +28°C° 0 mm 4 m/s 752 mmHg 44%
    17:00 +27°C° 0 mm 3 m/s 752 mmHg 50%
    18:00 +26°C° 0 mm 3 m/s 752 mmHg 57%
    19:00 +25°C° 0 mm 2 m/s 752 mmHg 63%
    20:00 +23°C° 0 mm 2 m/s 752 mmHg 69%
    21:00 +21°C° 0 mm 2 m/s 752 mmHg 76%
    22:00 +19°C° 0 mm 2 m/s 752 mmHg 82%
    23:00 +18°C° 0 mm 2 m/s 752 mmHg 82%
    Mostrar mais